• In Belarus
  • List of Countries
  • For 7 days
  • Water Temperature
  • Satellite Maps
  • Weather Map
  • Weather Widgets
  • user-avatar
    Login

    Hourly Weather Etchmiadzin

    Today, 19 April, Thursday

    Time Temperature Precipitation Wind Pressure Humidity
    00:00 +14°C° 0 mm 1 mps 687 mmHg 48%
    01:00 +14°C° 0 mm 1 mps 687 mmHg 48%
    02:00 +13°C° 0 mm 1 mps 687 mmHg 49%
    03:00 +13°C° 0 mm 1 mps 686 mmHg 50%
    04:00 +13°C° 0 mm 1 mps 686 mmHg 49%
    05:00 +13°C° 0 mm 1 mps 686 mmHg 49%
    06:00 +13°C° 0 mm 1 mps 686 mmHg 48%
    07:00 +15°C° 0 mm 2 mps 685 mmHg 44%
    08:00 +17°C° 0 mm 2 mps 685 mmHg 39%
    09:00 +19°C° 0 mm 2 mps 685 mmHg 34%
    10:00 +20°C° 0 mm 3 mps 685 mmHg 32%
    11:00 +21°C° 0 mm 3 mps 684 mmHg 30%
    12:00 +22°C° 0 mm 4 mps 684 mmHg 28%
    13:00 +22°C° 0.1 mm 4 mps 684 mmHg 29%
    14:00 +22°C° 0.1 mm 4 mps 683 mmHg 30%
    15:00 +22°C° 0 mm 4 mps 683 mmHg 30%
    16:00 +21°C° 0.4 mm 4 mps 682 mmHg 35%
    17:00 +20°C° 0.4 mm 3 mps 682 mmHg 41%
    18:00 +19°C° 0.4 mm 3 mps 682 mmHg 46%
    19:00 +18°C° 0.4 mm 2 mps 682 mmHg 51%
    20:00 +17°C° 0.4 mm 2 mps 682 mmHg 55%
    21:00 +16°C° 0.4 mm 2 mps 682 mmHg 60%
    22:00 +16°C° 0.2 mm 2 mps 682 mmHg 62%
    23:00 +15°C° 0.2 mm 2 mps 681 mmHg 64%

    Tomorrow, 20 April, Friday

    Time Temperature Precipitation Wind Pressure Humidity
    00:00 +14°C° 0.2 mm 2 mps 681 mmHg 66%
    01:00 +14°C° 0 mm 2 mps 681 mmHg 67%
    02:00 +13°C° 0 mm 2 mps 680 mmHg 67%
    03:00 +13°C° 0 mm 1 mps 680 mmHg 67%
    04:00 +13°C° 0 mm 1 mps 680 mmHg 67%
    05:00 +13°C° 0 mm 2 mps 680 mmHg 68%
    06:00 +12°C° 0 mm 2 mps 679 mmHg 68%
    07:00 +14°C° 0 mm 2 mps 679 mmHg 63%
    08:00 +15°C° 0 mm 2 mps 679 mmHg 58%
    09:00 +17°C° 0 mm 3 mps 679 mmHg 53%
    10:00 +18°C° 0.1 mm 3 mps 678 mmHg 50%
    11:00 +19°C° 0.1 mm 4 mps 678 mmHg 47%
    12:00 +20°C° 0.1 mm 4 mps 677 mmHg 45%
    13:00 +19°C° 0.8 mm 4 mps 677 mmHg 48%
    14:00 +18°C° 0.8 mm 4 mps 677 mmHg 52%
    15:00 +18°C° 0.8 mm 3 mps 676 mmHg 55%
    16:00 +17°C° 0.8 mm 3 mps 677 mmHg 56%
    17:00 +17°C° 0.8 mm 3 mps 677 mmHg 58%
    18:00 +16°C° 0.8 mm 2 mps 677 mmHg 59%
    19:00 +16°C° 0.8 mm 2 mps 677 mmHg 63%
    20:00 +15°C° 0.8 mm 1 mps 677 mmHg 67%
    21:00 +14°C° 0.8 mm 1 mps 677 mmHg 71%
    22:00 +13°C° 1 mm 2 mps 676 mmHg 73%
    23:00 +12°C° 1 mm 3 mps 676 mmHg 74%

    Day after tomorrow, 21 April, Saturday

    Time Temperature Precipitation Wind Pressure Humidity
    00:00 +11°C° 1 mm 3 mps 676 mmHg 76%
    01:00 +11°C° 0.8 mm 3 mps 676 mmHg 76%
    02:00 +10°C° 0.8 mm 4 mps 676 mmHg 75%
    03:00 +10°C° 0.8 mm 4 mps 676 mmHg 75%
    04:00 +9°C° 1.1 mm 3 mps 676 mmHg 76%
    05:00 +9°C° 1.1 mm 3 mps 677 mmHg 78%
    06:00 +9°C° 1.1 mm 3 mps 677 mmHg 79%
    07:00 +9°C° 0.6 mm 3 mps 677 mmHg 77%
    08:00 +10°C° 0.6 mm 3 mps 678 mmHg 74%
    09:00 +10°C° 0.6 mm 2 mps 678 mmHg 72%
    10:00 +12°C° 0.3 mm 2 mps 678 mmHg 70%
    11:00 +12°C° 0.3 mm 2 mps 678 mmHg 67%
    12:00 +13°C° 0.3 mm 2 mps 679 mmHg 65%
    13:00 +13°C° 0.4 mm 2 mps 679 mmHg 64%
    14:00 +13°C° 0.4 mm 2 mps 678 mmHg 64%
    15:00 +13°C° 0.4 mm 2 mps 678 mmHg 63%
    16:00 +13°C° 0.2 mm 2 mps 679 mmHg 64%
    17:00 +13°C° 0.2 mm 2 mps 679 mmHg 66%
    18:00 +12°C° 0.2 mm 2 mps 679 mmHg 67%
    19:00 +12°C° 0.2 mm 2 mps 680 mmHg 69%
    20:00 +10°C° 0.2 mm 2 mps 680 mmHg 70%
    21:00 +10°C° 0.2 mm 2 mps 681 mmHg 72%
    22:00 +10°C° 0.2 mm 2 mps 681 mmHg 73%
    23:00 +9°C° 0.2 mm 2 mps 681 mmHg 74%

    22 April, Sunday

    Time Temperature Precipitation Wind Pressure Humidity
    00:00 +9°C° 0.2 mm 2 mps 681 mmHg 75%
    01:00 +9°C° 0.1 mm 2 mps 681 mmHg 75%
    02:00 +8°C° 0.1 mm 2 mps 681 mmHg 75%
    03:00 +8°C° 0.1 mm 2 mps 681 mmHg 76%
    04:00 +8°C° 0.2 mm 2 mps 681 mmHg 76%
    05:00 +8°C° 0.2 mm 2 mps 681 mmHg 75%
    06:00 +8°C° 0.2 mm 2 mps 682 mmHg 75%
    07:00 +9°C° 0.2 mm 2 mps 682 mmHg 72%
    08:00 +9°C° 0.2 mm 2 mps 682 mmHg 69%
    09:00 +10°C° 0.2 mm 2 mps 682 mmHg 67%
    10:00 +10°C° 0.2 mm 2 mps 682 mmHg 65%
    11:00 +12°C° 0.2 mm 2 mps 682 mmHg 64%
    12:00 +13°C° 0.2 mm 1 mps 681 mmHg 63%
    13:00 +13°C° 0.1 mm 1 mps 681 mmHg 63%
    14:00 +13°C° 0.1 mm 1 mps 681 mmHg 62%
    15:00 +14°C° 0.1 mm 1 mps 680 mmHg 62%
    16:00 +13°C° 0.1 mm 1 mps 680 mmHg 62%
    17:00 +13°C° 0.1 mm 1 mps 680 mmHg 63%
    18:00 +13°C° 0.1 mm 1 mps 680 mmHg 63%
    19:00 +12°C° 0.1 mm 1 mps 681 mmHg 66%
    20:00 +10°C° 0.1 mm 2 mps 681 mmHg 68%
    21:00 +9°C° 0.1 mm 2 mps 682 mmHg 71%
    22:00 +9°C° 0 mm 2 mps 682 mmHg 72%
    23:00 +8°C° 0 mm 2 mps 682 mmHg 73%

    23 April, Monday

    Time Temperature Precipitation Wind Pressure Humidity
    00:00 +8°C° 0 mm 2 mps 682 mmHg 74%
    01:00 +7°C° 0 mm 2 mps 682 mmHg 75%
    02:00 +7°C° 0 mm 2 mps 681 mmHg 75%
    03:00 +7°C° 0 mm 2 mps 681 mmHg 76%
    04:00 +7°C° 0 mm 2 mps 681 mmHg 75%
    05:00 +7°C° 0 mm 2 mps 682 mmHg 73%
    06:00 +7°C° 0 mm 2 mps 682 mmHg 72%
    07:00 +8°C° 0 mm 3 mps 682 mmHg 66%
    08:00 +10°C° 0 mm 3 mps 682 mmHg 60%
    09:00 +12°C° 0 mm 3 mps 682 mmHg 54%
    10:00 +13°C° 0 mm 3 mps 682 mmHg 52%
    11:00 +15°C° 0 mm 2 mps 682 mmHg 50%
    12:00 +16°C° 0 mm 2 mps 682 mmHg 48%
    13:00 +16°C° 0 mm 2 mps 682 mmHg 47%
    14:00 +17°C° 0 mm 2 mps 682 mmHg 46%
    15:00 +17°C° 0 mm 2 mps 681 mmHg 45%
    16:00 +17°C° 0 mm 2 mps 682 mmHg 45%
    17:00 +16°C° 0 mm 2 mps 682 mmHg 45%
    18:00 +16°C° 0 mm 2 mps 682 mmHg 45%
    19:00 +14°C° 0 mm 2 mps 683 mmHg 49%
    20:00 +13°C° 0 mm 2 mps 683 mmHg 53%
    21:00 +12°C° 0 mm 2 mps 684 mmHg 56%
    22:00 +11°C° 0 mm 1 mps 684 mmHg 58%
    23:00 +11°C° 0 mm 1 mps 684 mmHg 60%

    24 April, Tuesday

    Time Temperature Precipitation Wind Pressure Humidity
    00:00 +10°C° 0 mm 1 mps 684 mmHg 61%
    01:00 +10°C° 0 mm 1 mps 684 mmHg 61%
    02:00 +10°C° 0 mm 1 mps 684 mmHg 60%
    03:00 +9°C° 0 mm 1 mps 684 mmHg 60%
    04:00 +9°C° 0 mm 1 mps 685 mmHg 59%
    05:00 +9°C° 0 mm 1 mps 685 mmHg 59%
    06:00 +9°C° 0 mm 1 mps 686 mmHg 58%
    07:00 +11°C° 0 mm 1 mps 686 mmHg 55%
    08:00 +13°C° 0 mm 2 mps 686 mmHg 53%
    09:00 +14°C° 0 mm 2 mps 686 mmHg 50%
    10:00 +16°C° 0 mm 2 mps 686 mmHg 47%
    11:00 +17°C° 0 mm 2 mps 686 mmHg 45%
    12:00 +18°C° 0 mm 2 mps 686 mmHg 42%
    13:00 +18°C° 0 mm 3 mps 686 mmHg 41%
    14:00 +19°C° 0 mm 3 mps 686 mmHg 39%
    15:00 +19°C° 0 mm 3 mps 686 mmHg 38%
    16:00 +19°C° 0 mm 3 mps 686 mmHg 40%
    17:00 +18°C° 0 mm 3 mps 686 mmHg 42%
    18:00 +17°C° 0 mm 3 mps 686 mmHg 44%
    19:00 +16°C° 0 mm 2 mps 686 mmHg 46%
    20:00 +15°C° 0 mm 2 mps 686 mmHg 47%
    21:00 +14°C° 0 mm 1 mps 687 mmHg 49%
    22:00 +13°C° 0 mm 1 mps 687 mmHg 49%
    23:00 +13°C° 0 mm 1 mps 687 mmHg 49%
    Show more